Location: Newark
(40.7066°N, 111.8219°W)
Time: 16:37:34
(UTC+00:00)

Transit 2A Rocket - Pass Details

Date: 26 November 2019
Orbit: 594 x 909 km, 66.7° (Epoch: 15 December)

Event Time Altitude Azimuth Distance (km) Brightness Sun altitude
Rises 13:03:13 0° 319° (NW) 2,869 - -15.5°
Reaches altitude 10° 13:05:38 10° 309° (NW) 1,986 - -15.1°
Exits shadow 13:07:59 24° 282° (WNW) 1,310 5.6 -14.7°
Maximum altitude 13:09:30 30° 248° (WSW) 1,156 5.5 -14.4°
Drops below altitude 10° 13:13:36 10° 188° (S) 2,100 7.4 -13.7°
Sets 13:16:13 0° 177° (S) 3,064 8.4 -13.2°
